Погода в Выборге

Погода в Выборге : погода сейчас, прогноз погоды и архив. Всё, что Вы хотите узнать о погоде в Выборге!

Хотите узнать прогноз погоды в Выборге? Тогда Вам сюда: Погода в Выборге

Поиск расширенной информации на нашем сайте:

Полезная информация:

Другие новости

Новости СМИ2

Главная страница сайта

Новости сайта

03.07.2017

Напоминаем, что на нашем специализированном сайте Метеоцентр.Азия вы можете получить высокодетализированные автоматические прогнозы погоды по пунктам России, СНГ и мира в авиационном формате (включающие направление и скорость ветра, видимость, явления погоды, количество и форму облачности, нижнюю и верхнюю границу облачности).

Рекомендуем:

Погода в Выборге - сегодня

Время (UTC), дата Ветер
(°,м/с) 
Видим.   Явления Облачность Т
(°С)
Тd
(°С)
f(%) Тe
(°С)
Pmin
(гПа)
dP
(гПа)
Po
(мм)
O2
(г/м3)
Тmin Tmax R s Состояние
почвы
21 18.05.19 120 (ЮВ) 20000 м    ясно 
+14.8 +8.5 66 +16  1020.1  0.4  764  291           
00 19.05.19 070 (В) 20000 м    ясно 
+10.9 +7.6 80 +12  1020.1  764  295           
03 19.05.19 тихо ()   20000 м    ясно 
+11.3 +8.3 82 +11  1020.4  0.3  764  294  +9.4         
06 19.05.19 130 (ЮВ) 20000 м    8/0 верхняя 
[Ci fib]
+16.1 +9.4 64 +17  1020.5  0.1  764  289  +9.4         
09 19.05.19 190 (Ю) 20000 м    8/0 верхняя 
[Ci fib]
+19.2 +7.7 47 +20  1020.6  0.2  764  286           
12 19.05.19 220 (ЮЗ) 20000 м    8/0 верхняя 
[Cs]
+22.3 +9.1 43 +22  1019.9  -0.7  764  283           
15 19.05.19 090 (В) 20000 м    8/0 средняя, верхняя 
[Ac trans|Cs]
+22 +7.4 39 +22  1019.5  -0.4  764  284           
18 19.05.19 080 (В) 20000 м    8/0 верхняя 
[Ci fib]
+18.2 +6.6 47 +19  1019.3  -0.2  763  287    +23.7       
21 19.05.19 070 (В) 20000 м    8/0 верхняя 
[Ci fib]
+14.4 +6.3 58 +15  1019.8  0.4  764  291           
00 20.05.19 080 (В) 20000 м    ясно верхняя 
[Ci fib]
+12.4 +6.5 67 +12  1019.9  0.1  764  293           
03 20.05.19 070 (В) 20000 м    8/0 верхняя 
[Ci fib]
+12.1 +6.7 70 +12  1019.9  764  294  +11.8         
06 20.05.19 080 (В) 20000 м    6/0 верхняя 
[Ci fib]
+17.3 +8.8 57 +18  1019.2  -0.6  763  288  +11.8         
09 20.05.19 100 (В) 20000 м    9/0 средняя, верхняя 
[As trans|Cs]
+22 +9.6 45 +22  1018.5  -0.7  763  283           
12 20.05.19 180 (Ю) 20000 м    9/0 средняя 
[As trans]
+22.3 +12.5 54 +27  1017.5  -1  762  281           
15 20.05.19 тихо ()   20000 м    9/0 средняя, верхняя 
[As trans|Cs]
+24.2 +11 43 +26  1016.2  -1.3  761  280           
18 20.05.19 060 (СВ) 20000 м    9/0 верхняя 
[Cc]
+19.7 +9.4 51 +21  1015.9  -0.3  761  284    +25.6       
21 20.05.19 060 (СВ) 10 км    10/0 средняя 
[Ac trans]
+16.3 +7.4 56 +18  1015.1  -0.8  760  288           
00 21.05.19 040 (СВ) 20000 м    9/0 средняя 
[Ac trans]
+14.8 +8.5 66 +16  1014.7  -0.4  760  289           
03 21.05.19 060 (СВ) 20000 м    9/0 средняя 
[Ac trans]
+13.3 +8.7 74 +14  1014.6  -0.1  760  290  +13.2         
06 21.05.19 050 (СВ) 20000 м    9/0 средняя, верхняя 
[Ac trans|Ci fib]
+16.2 +11.2 72 +21  1014.3  -0.3  760  287  +13.2         
09 21.05.19 100 (В) 20000 м    8/0 средняя, верхняя 
[Ac trans|Ci fib]
+19.8 +10.6 55 +23  1014.1  -0.2  759  283           
12 21.05.19 030 (СВ) 20000 м    6/0 средняя, верхняя 
[Ac trans|Ci fib]
+23.5 +11.7 47 +27  1013.7  -0.4  759  280           
15 21.05.19 050 (СВ) 20000 м    4/0 верхняя 
[Ci fib]
+23.5 +11 45 +26  1012.5  -1.2  758  279           
18 21.05.19 100 (В) 20000 м    4/0 верхняя 
[Cs]
+19.8 +10.6 55 +22  1012.9  0.4  759  283    +24       
21 21.05.19 070 (В) 20000 м    3/0 верхняя 
[Ci fib]
+15.5 +9.8 69 +17  1013  0.1  759  288           
Время (UTC), дата Ветер
(°,м/с) 
Видим.   Явления Облачность Т
(°С)
Тd
(°С)
f(%) Тe
(°С)
Pmin
(гПа)
dP
(гПа)
Po
(мм)
O2
(г/м3)
Тmin Tmax R s Состояние
почвы

Для получения пояснительной информации подведите курсор к названию столбца.

ПОГОДА в Выборге - архив

Всё, что Вы хотите узнать о погоде в Выборге - удобно и подробно!

Выберите нужную дату (начиная с 1 января 2018* года) и нажмите кнопку "Найти".
Будут отображены архивные сводки погоды по пункту Выборг, начиная с указанной даты.


Отображать данные в формате CSV (для использования в таблицах Excel)


Внимание! Наш архив погоды предназначен исключительно для личного некоммерческого использования в познавательных целях. Если Вам необходимы официальные справки о состоянии погоды (для производственных, юридических, коммерческих и т.п. целей), обращайтесь в органы Росгидромета.

*Примечание: данная дата относится к архиву по метеостанциям СССР (Россия, СНГ, Балтия).
Архив по метеостанциям Зарубежной Европы и Азии (кроме Китая) хранится 10 дней, по другим регионам земного шара (Китай, Африка, Америка, Австралия, Океания) - 1 день.

Выборг - район местоположения метеостанции


Название, широта, долгота, высота метеостанции:
Выборг 60.7°ш. 28.7°д. 13 м над ур. моря [Российская Федерация]

Дополнительная информация

В oтличие oт бoльшинства пoгoдных сайтoв мы публикуем пoдрoбную метеoинфoрмацию в детальнoм прoфессиoнальнoм фoрмате.

Характеристики температуры и влажнoсти вoздуха измеряются на высoте 2 м в тени вдали oт зданий и деревьев.
Скoрoсть ветра измеряется на высoте 10 м (на урoвне рoста челoвека скoрoсть ветра ниже в 1.5-2 раза). Если метеoстанция нахoдится в гoрoде или в лесу, тo скoрoсть ветра занижена на 2-4 м/с пo сравнению с oткрытым местoм. Скoрoсть ветра над акватoриями крупных рек и oзёр, а также на вершинах хoлмoв на 2-5 м/с выше, чем в oбычных услoвиях.
Атмoсфернoе давление в разных тoчках местнoсти мoжет значительнo oтличаться oт давления на метеoстанции, в зависимoсти oт услoвий рельефа (при пoдъёме на 10 м давление пoнижается примернo на 1 мм рт.ст.).